Flag for U.S.A. Weather past 2 weeks in Lafayette, Indiana, U.S.A.

Now
49 °F

Sunny.


Feels Like: 43 °F
Forecast: 44 / 57 °F
Wind: 15 mph from Northwest

Location: Purdue University Airport

Current Time: Mar 31, 2015 at 9:18:23 AM

Latest Report: Mar 31, 2015 at 8:54 AM


Visibility: 10 mi

Pressure: 29.81 "Hg

Humidity: 59%

Dew point: 35 °F

Location of LafayetteLocation

Historic Weather in Lafayette — Graph

°F

Lafayette temperature yesterday

Maximum temperature yesterday: 61 °F (at 5:54 PM)
Minimum temperature yesterday: 33 °F (at 7:54 AM)
Average temperature yesterday: 48 °F

Past Weeks' High & Low Weather Summary

 TemperatureHumidityPressure
High72 °F (Mar 16, 4:54 PM)97% (Mar 21, 6:54 AM)30.39 "Hg (Mar 21, 6:54 AM)
Low16 °F (Mar 28, 4:54 AM)24% (Mar 18, 3:54 PM)29.75 "Hg (Mar 31, 5:54 AM)
Average39 °F65%30.13 "Hg
* Reported Mar 16 7:54 AM — Mar 31 7:54 AM, Lafayette, Weather by CustomWeather, © 2015

Note: Actual official high and low records may vary slightly from our data, if they occured in-between our weather recording intervals... More about our weather records

Advertising

Lafayette weather history for previous 24 hours

 ConditionsComfort  
Time TempWeatherWind HumidityBarometerVisibility
7:54 AM
Tue, Mar 31
49 °FClear.17 mph59%29.78 "Hg10 mi
6:54 AM49 °FClear.12 mph59%29.76 "Hg10 mi
5:54 AM48 °FClear.13 mph61%29.75 "Hg10 mi
4:54 AM49 °FOvercast.8 mph59%29.76 "Hg10 mi
3:54 AM50 °FPassing clouds.10 mph54%29.79 "Hg10 mi
2:54 AM50 °FClear.8 mph50%29.82 "Hg10 mi
1:54 AM51 °FOvercast.7 mph50%29.87 "Hg10 mi
12:54 AM51 °FOvercast.12 mph50%29.89 "Hg10 mi
11:54 PM
Mon, Mar 30
51 °FClear.9 mph52%29.92 "Hg10 mi
10:54 PM50 °FPassing clouds.7 mph54%29.96 "Hg10 mi
9:54 PM53 °FOvercast.No wind48%29.98 "Hg10 mi
8:54 PM55 °FOvercast.5 mph44%29.97 "Hg10 mi
7:54 PM58 °FPassing clouds.5 mph36%29.97 "Hg10 mi
6:54 PM61 °FSunny.10 mph32%29.98 "Hg10 mi
5:54 PM61 °FSunny.14 mph31%29.99 "Hg10 mi
4:54 PM59 °FSunny.14 mph33%30.03 "Hg10 mi
3:54 PM60 °FSunny.13 mph32%30.04 "Hg10 mi
2:54 PM59 °FSunny.13 mph33%30.07 "Hg10 mi
1:54 PM57 °FSunny.10 mph36%30.09 "Hg10 mi
12:54 PM54 °FSunny.15 mph37%30.11 "Hg10 mi
11:54 AM52 °FSunny.10 mph43%30.11 "Hg10 mi
10:54 AM49 °FSunny.9 mph48%30.11 "Hg10 mi
9:54 AM44 °FSunny.12 mph60%30.10 "Hg10 mi
Weather by CustomWeather, © 2015

See weather overviewHow to use our weather pages